SCP
0 0 0 0 0 0 0 0 0 0 0 0 0 0 0 0 0 0 0 0 0 0 0 0 0 0 0 0 0 0 0 0 0 0 0 0 0 0 0 0 0 0 0 0
0 0 0 0 0 0 0 0 0 0 0 0 0 0 0 0 0 0 0 0 0 0 0 0 0 0 0 0 0 0 0 0 0 0 0 0 0 0 0 0 0 0 0 0
0 0 0 0 0 0 0 0 0 0 0 0 0 0 0 0 0 0 0 0 0 0 0 0 0 0 0 0 0 0 0 0 0 0 0 0 0 0 0 0 0 0 0 0
0 0 0 0 0 0 0 0 0 0 0 0 0 0 0 0 0 0 0 0 0 0 0 0 0 0 0 0 0 0 0 0 0 0 0 0 0 0 0 0 0 0 0 0
0 0 0 0 0 0 0 0 0 0 0 0 0 0 0 0 0 0 0 0 0 0 0 0 0 0 0 0 0 0 0 0 0 0 0 0 0 0 0 0 0 0 0 0
0 0 0 0 0 0 0 0 0 0 0 0 0 0 0 0 0 0 0 0 0 0 0 0 0 0 0 0 0 0 0 0 0 0 0 0 0 0 0 0 0 0 0 0
0 0 0 0 0 0 0 0 0 0 0 0 0 0 0 0 0 0 0 0 0 0 0 0 0 0 0 0 0 0 0 0 0 0 0 0 0 0 0 0 0 0 0 0
0 0 0 0 0 0 0 0 0 0 0 0 0 0 0 0 0 0 0 0 0 0 0 0 0 0 0 0 0 0 0 0 0 0 0 0 0 0 0 0 0 0 0 0
0 0 0 0 0 0 0 0 0 0 0 0 0 0 0 0 0 0 0 0 0 0 0 0 0 0 0 0 0 0 0 0 0 0 0 0 0 0 0 0 0 0 0 0
0 0 0 0 0 0 0 0 0 0 0 0 0 0 0 0 0 0 0 0 0 0 0 0 0 0 0 0 0 0 0 0 0 0 0 0 0 0 0 0 0 0 0 0
0 0 0 0 0 0 0 0 0 0 0 0 0 0 0 0 0 0 0 0 0 0 0 0 0 0 0 0 0 0 0 0 0 0 0 0 0 0 0 0 0 0 0 0
0 0 0 0 0 0 0 0 0 0 0 0 0 0 0 0 0 0 0 0 0 0 0 0 0 0 0 0 0 0 0 0 0 0 0 0 0 0 0 0 0 0 0 0
0 0 0 0 0 0 0 0 0 0 0 0 0 0 0 0 0 0 0 0 0 0 0 0 0 0 0 0 0 0 0 0 0 0 0 0 0 0 0 0 0 0 0 0
0 0 0 0 0 0 0 0 0 0 0 0 0 0 0 0 0 0 0 0 0 0 0 0 0 0 0 0 0 0 0 0 0 0 0 0 0 0 0 0 0 0 0 0
0 0 0 0 0 0 0 0 0 0 0 0 0 0 0 0 0 0 0 0 0 0 0 0 0 0 0 0 0 0 0 0 0 0 0 0 0 0 0 0 0 0 0 0
0 0 0 0 0 0 0 0 0 0 0 0 0 0 0 0 0 0 0 0 0 0 0 0 0 0 0 0 0 0 0 0 0 0 0 0 0 0 0 0 0 0 0 0
0 0 0 0 0 0 0 0 0 0 0 0 0 0 0 0 0 0 0 0 0 0 0 0 0 0 0 0 0 0 0 0 0 0 0 0 0 0 0 0 0 0 0 0
0 0 0 0 0 0 0 0 0 0 0 0 0 0 0 0 0 0 0 0 0 0 0 0 0 0 0 0 0 0 0 0 0 0 0 0 0 0 0 0 0 0 0 0
0 0 0 0 0 0 0 0 0 0 0 0 0 0 0 0 0 0 0 0 0 0 0 0 0 0 0 0 0 0 0 0 0 0 0 0 0 0 0 0 0 0 0 0
0 0 0 0 0 0 0 0 0 0 0 0 0 0 0 0 0 0 0 0 0 0 0 0 0 0 0 0 0 0 0 0 0 0 0 0 0 0 0 0 0 0 0 0
0 0 0 0 0 0 0 0 0 0 0 0 0 0 0 0 0 0 0 0 0 0 0 0 0 0 0 0 0 0 0 0 0 0 0 0 0 0 0 0 0 0 0 0
0 0 0 0 0 0 0 0 0 0 0 0 0 0 0 0 0 0 0 0 0 0 0 0 0 0 0 0 0 0 0 0 0 0 0 0 0 0 0 0 0 0 0 0
0 0 0 0 0 0 0 0 0 0 0 0 0 0 0 0 0 0 0 0 0 0 0 0 0 0 0 0 0 0 0 0 0 0 0 0 0 0 0 0 0 0 0 0
0 0 0 0 0 0 0 0 0 0 0 0 0 0 0 0 0 0 0 0 0 0 0 0 0 0 0 0 0 0 0 0 0 0 0 0 0 0 0 0 0 0 0 0
0 0 0 0 0 0 0 0 0 0 0 0 0 0 0 0 0 0 0 0 0 0 0 0 0 0 0 0 0 0 0 0 0 0 0 0 0 0 0 0 0 0 0 0
0 0 0 0 0 0 0 0 0 0 0 0 0 0 0 0 0 0 0 0 0 0 0 0 0 0 0 0 0 0 0 0 0 0 0 0 0 0 0 0 0 0 0 0
0 0 0 0 0 0 0 0 0 0 0 0 0 0 0 0 0 0 0 0 0 0 0 0 0 0 0 0 0 0 0 0 0 0 0 0 0 0 0 0 0 0 0 0
Wind_Speed
7 6 3 5 8 6 2 5 6 1 5 6 9 8 8 8 10 13 14 14 13 12 12 11 11 10 9 9 9 9 9 8 9 10 9 9 8 7 6 5 4 3 2 1
3 4 3 4 5 3 5 6 3 7 7 8 8 10 12 12 14 16 16 17 16 14 13 13 12 12 11 10 9 9 9 9 9 9 9 9 9 8 7 6 5 5 4 1
4 4 3 5 9 5 7 7 7 5 4 9 11 14 13 14 16 16 15 15 14 13 12 11 10 11 11 10 9 8 8 8 9 9 9 9 8 8 8 8 7 6 5 4
2 3 1 2 4 9 9 7 6 5 4 8 10 11 10 12 15 15 14 13 13 12 12 11 11 11 12 10 9 9 8 8 8 8 9 8 6 8 8 6 7 7 6 6
2 1 1 4 6 6 2 3 2 4 9 11 11 10 9 13 15 14 13 12 12 12 12 11 11 11 11 10 9 9 9 8 7 7 8 8 7 8 7 6 7 7 6 7
2 1 2 5 12 13 2 2 4 7 11 13 10 9 9 7 10 13 14 13 13 12 11 11 12 10 10 11 9 11 11 9 8 7 7 8 8 8 5 7 8 8 7 7
2 1 4 5 11 10 6 8 12 12 13 13 11 14 15 14 15 16 17 17 16 14 13 12 11 9 11 11 11 12 10 10 10 8 7 7 6 6 6 7 7 8 8 7
4 4 2 6 6 6 6 11 13 14 14 15 16 17 17 17 16 16 17 16 16 14 15 13 10 9 12 13 14 12 10 11 11 9 8 6 5 5 6 7 9 9 8 7
2 1 6 4 4 8 10 12 13 13 15 15 16 17 16 16 16 16 16 16 14 14 15 13 11 10 13 14 13 11 11 12 12 10 8 7 7 5 4 6 8 9 9 9
1 3 5 8 10 11 11 12 12 13 15 14 16 18 18 17 16 15 15 14 14 14 15 15 13 12 13 13 11 11 12 12 11 9 9 8 7 5 4 4 7 9 10 10
2 6 9 8 9 10 9 10 12 13 14 14 16 19 19 18 17 16 15 13 13 13 15 16 14 14 13 12 10 11 12 12 10 9 8 7 7 7 7 5 5 9 11 12
4 8 6 10 10 9 10 11 13 15 15 13 15 19 20 17 16 16 16 15 15 16 17 17 16 14 12 11 11 11 10 10 8 7 7 6 6 6 8 9 11 16 16 14
7 7 7 11 10 9 9 13 15 16 16 19 14 15 19 19 17 18 19 19 20 20 20 19 18 16 13 12 12 10 10 10 7 7 7 6 5 5 6 7 10 16 18 18
8 6 8 8 9 11 13 14 14 15 15 17 17 18 20 22 22 21 21 21 21 20 19 18 18 17 13 12 11 11 10 12 10 7 7 6 5 5 5 6 8 6 11 16
8 8 10 11 11 13 13 15 16 16 16 18 18 20 21 22 23 22 21 21 20 19 19 18 18 16 11 10 10 10 8 7 7 6 6 6 5 5 5 7 8 6 7 7
10 10 10 12 14 14 15 15 16 18 20 21 21 21 22 22 22 22 21 19 18 18 18 17 17 14 11 9 9 7 6 10 8 6 6 6 5 5 5 7 7 7 10 10
8 10 11 13 15 15 14 14 17 20 21 22 22 23 23 22 22 21 19 17 15 15 15 15 15 12 9 7 6 5 5 6 8 5 5 6 5 5 6 7 6 7 9 11
9 9 11 13 15 15 16 16 17 20 20 21 21 22 23 22 22 21 19 18 15 14 12 11 11 9 7 6 5 5 5 5 4 5 5 5 5 5 7 7 6 9 9 10
11 11 13 13 13 12 13 16 17 19 19 18 20 22 22 22 21 20 17 16 15 14 11 10 12 9 6 5 5 4 5 6 5 5 5 5 6 6 6 5 5 8 10 11
10 12 12 13 12 12 14 16 17 18 18 18 20 21 22 23 22 21 16 12 10 10 12 11 9 6 5 5 5 3 4 4 4 4 4 5 5 5 4 3 6 9 10 11
12 12 12 12 13 14 14 15 15 17 18 18 19 21 23 23 22 20 15 11 10 11 11 12 7 4 4 4 5 3 4 4 4 5 5 5 4 4 3 4 7 8 9 10
10 10 11 12 13 15 15 14 15 17 17 18 20 21 22 23 22 19 15 10 11 13 10 7 6 6 6 5 4 4 5 5 5 5 5 5 4 4 4 6 7 8 8 9
9 8 10 12 14 16 16 14 16 16 17 19 20 22 22 21 17 16 16 12 12 15 11 7 8 10 9 5 4 5 6 6 6 5 5 5 5 5 6 8 7 8 8 8
7 8 10 12 14 14 16 17 18 15 16 17 17 20 20 17 15 13 13 18 19 18 11 8 10 9 6 3 4 4 4 4 4 4 5 5 5 6 7 7 7 7 8 9
7 8 10 13 13 12 14 16 17 16 16 15 18 19 16 13 15 16 16 18 21 17 11 9 8 5 2 1 1 1 1 2 2 2 4 6 7 8 8 8 7 7 7 7
6 8 10 11 10 10 11 12 12 13 15 16 16 16 16 15 16 15 15 18 21 17 11 8 7 5 3 2 1 1 1 1 2 4 6 7 8 8 7 7 9 7 6 6
7 7 8 9 9 10 11 11 12 14 14 15 17 16 16 16 16 17 18 15 15 13 10 8 7 7 6 5 4 4 4 4 5 5 5 5 6 6 7 8 6 6 6 6
Wind_Direction
238 252 267 269 289 309 229 219 221 265 83 18 5 1 356 360 1 360 356 352 348 343 339 335 332 331 330 327 329 329 325 316 295 280 265 251 237 225 215 210 214 208 207 319
278 280 272 283 330 3 29 16 55 86 56 356 350 353 348 347 347 345 341 337 331 327 323 318 318 316 313 311 313 318 323 324 320 309 288 263 244 222 207 200 199 195 193 207
273 304 346 10 352 32 57 32 28 55 16 342 343 347 340 329 325 323 322 315 307 304 298 294 296 302 294 288 295 303 308 313 320 325 317 291 260 228 212 199 193 198 195 195
301 3 336 138 73 92 101 76 70 69 346 324 300 289 275 268 267 270 274 280 286 287 285 284 289 297 291 285 292 297 299 304 312 321 326 316 279 244 225 202 196 199 196 195
77 340 315 98 7 355 348 97 16 319 301 291 279 279 267 254 249 253 263 271 274 275 277 280 284 290 291 286 289 293 294 296 303 310 315 316 299 267 239 213 204 196 190 188
72 308 321 353 325 319 240 115 249 274 288 296 309 302 290 268 267 274 284 287 284 283 281 276 273 276 279 278 283 284 283 282 282 285 290 300 302 288 250 223 215 199 190 187
23 303 64 322 329 21 43 305 293 287 282 286 275 269 280 284 283 282 284 284 283 282 278 271 268 271 271 271 268 268 270 269 266 265 267 273 288 299 272 239 217 201 192 185
9 17 1 318 20 35 280 266 272 278 280 281 282 284 288 289 287 285 285 281 277 274 273 273 269 267 271 272 270 269 270 270 263 258 260 268 263 288 284 254 226 204 191 180
95 228 250 277 253 248 255 270 278 286 293 295 296 295 294 291 289 289 285 282 277 273 274 272 265 257 263 269 271 271 270 270 267 263 259 257 250 253 279 264 238 204 192 186
67 294 289 275 265 271 283 290 296 299 301 300 296 296 297 296 294 289 285 282 281 280 277 274 266 258 256 264 266 263 263 265 263 260 261 261 252 237 238 262 251 213 192 189
315 283 293 285 287 299 309 312 308 305 303 297 294 296 296 297 294 292 289 285 282 279 277 274 267 258 254 257 259 257 259 260 254 250 253 260 255 240 232 241 256 238 207 191
265 268 279 288 297 304 306 305 302 304 302 297 293 295 298 297 295 294 292 289 288 285 282 279 272 265 258 255 252 251 259 257 246 243 245 247 256 263 245 251 268 252 230 199
253 284 283 283 290 294 297 299 302 302 302 305 301 296 301 302 302 298 297 297 296 294 290 286 280 274 267 257 247 243 249 250 239 237 237 240 247 263 273 279 268 239 206 190
287 304 298 290 288 295 300 301 301 303 302 302 304 305 307 308 308 305 303 301 298 294 292 289 285 279 270 257 247 243 243 244 236 232 230 231 237 250 257 277 273 214 188 181
298 301 288 290 295 303 307 311 315 313 308 307 308 311 313 312 309 306 302 300 298 294 292 290 285 279 268 255 247 240 234 229 227 227 227 231 237 245 252 268 264 200 157 161
298 303 304 305 305 309 313 316 315 314 315 314 315 317 316 311 306 304 303 304 304 303 300 296 288 279 266 257 242 228 220 230 228 221 227 237 243 249 259 265 253 194 170 158
317 312 309 310 312 314 314 312 313 316 315 315 316 316 314 312 310 309 310 309 306 303 302 302 299 287 268 250 233 220 212 229 240 229 224 233 241 253 265 267 240 188 168 160
302 295 294 300 308 313 312 311 313 315 313 314 316 315 314 314 313 313 314 313 310 307 305 309 312 303 276 255 235 223 221 219 215 220 227 234 242 254 266 260 222 174 156 154
306 298 299 302 304 303 306 308 312 313 313 317 318 316 314 313 313 313 312 311 310 310 310 312 311 310 292 274 265 217 209 209 213 223 229 243 253 257 255 242 187 154 150 155
299 296 300 303 305 304 307 311 313 314 316 319 319 318 317 317 317 316 310 302 298 298 305 310 309 297 281 268 262 210 201 206 217 232 238 243 248 250 242 203 159 150 153 161
298 302 306 307 308 309 311 313 317 317 318 322 322 321 318 316 316 317 312 307 302 304 310 309 304 288 267 253 250 224 217 222 232 235 232 233 239 240 217 175 157 153 157 164
300 306 307 308 311 316 319 318 318 319 322 324 324 322 320 319 319 318 313 309 305 303 302 296 291 277 266 254 236 230 229 227 227 222 221 224 225 219 195 170 158 155 158 163
304 305 308 312 315 316 318 321 323 325 325 325 323 321 320 318 318 320 322 321 318 313 306 288 279 280 276 252 228 226 224 222 214 209 214 219 214 196 174 161 155 154 154 157
309 308 309 312 318 321 325 326 326 325 323 321 318 318 319 320 321 321 318 317 321 320 318 304 287 285 280 240 223 219 218 218 219 221 222 205 177 160 153 150 149 149 151 153
311 311 316 324 329 327 322 323 325 325 326 324 321 321 325 326 324 323 324 325 329 332 334 332 326 318 292 229 224 242 268 273 243 193 163 152 147 145 146 148 150 151 151 153
319 322 320 318 319 320 322 325 325 325 327 325 325 329 332 332 329 328 330 330 334 338 348 359 10 22 47 73 78 26 359 36 95 112 124 132 137 139 141 147 153 157 156 155
323 320 318 325 327 326 326 326 325 326 326 324 327 331 334 335 335 336 336 335 339 346 359 11 20 29 39 47 48 40 40 49 65 86 108 122 132 137 143 147 152 153 156 161